Location: Nairn
(57.5833°N, 3.8667°W)
Time: 01:55:08
(UTC+00:00)

Transit 2A - Pass Details

Date: 28 November 2020
Orbit: 598 x 960 km, 66.7° (Epoch: 20 January)

Event Time Altitude Azimuth Distance (km) Brightness Sun altitude
Rises 19:24:23 0° 235° (SW) 3,611 10.2 -28.8°
Reaches altitude 10° 19:27:01 10° 238° (WSW) 2,643 9.4 -29.1°
Maximum altitude 19:33:12 70° 322° (NW) 947 6.4 -29.9°
Enters shadow 19:33:21 70° 333° (NNW) 947 6.4 -30.0°
